timestamp,surface_pressure_avg,surface_temp_avg,battery_voltage,lat,long
2018-08-13 00:00:00+00:00,382.0362,18.58,13.13,47.84626,-54.09684
2018-08-13 00:10:00+00:00,387.0579,18.6,13.05,47.84626,-54.09684
2018-08-13 00:20:00+00:00,385.3063,18.67,13.13,47.84626,-54.09684
2018-08-13 00:30:00+00:00,384.7913,18.79,13.13,47.84626,-54.09684
2018-08-13 00:40:00+00:00,388.7696,18.8,13.13,47.84626,-54.09684
2018-08-13 00:50:00+00:00,387.058,18.86,13.13,47.84626,-54.09684
2018-08-13 01:00:00+00:00,379.0529,18.98,13.05,47.84626,-54.09684
2018-08-13 01:10:00+00:00,379.318,19.0,13.05,47.84626,-54.09684
2018-08-13 01:20:00+00:00,380.423,19.1,13.05,47.84626,-54.09684
2018-08-13 01:30:00+00:00,374.3613,19.4,13.13,47.84626,-54.09684
2018-08-13 01:40:00+00:00,371.2012,19.4,13.13,47.84626,-54.09684
2018-08-13 01:50:00+00:00,373.3529,19.4,13.13,47.84626,-54.09684
2018-08-13 02:00:00+00:00,369.9095,19.4,13.05,47.84626,-54.09684
2018-08-13 02:10:00+00:00,358.5546,19.4,12.97,47.84626,-54.09684
2018-08-13 02:20:00+00:00,353.4046,19.4,13.05,47.84626,-54.09684
2018-08-13 02:30:00+00:00,352.1146,19.3,13.05,47.84626,-54.09684
2018-08-13 02:40:00+00:00,342.8763,19.3,13.13,47.84626,-54.09684
2018-08-13 02:50:00+00:00,330.1929,19.3,13.13,47.84626,-54.09684
2018-08-13 03:00:00+00:00,323.1763,19.3,13.05,47.84626,-54.09684
2018-08-13 03:10:00+00:00,314.988,19.3,12.97,47.84626,-54.09684
2018-08-13 03:20:00+00:00,301.6314,19.3,13.05,47.84626,-54.09684
2018-08-13 03:30:00+00:00,289.9864,19.3,13.05,47.84626,-54.09684
2018-08-13 03:40:00+00:00,280.808,19.3,13.05,47.84626,-54.09684
2018-08-13 03:50:00+00:00,266.9398,19.35,13.05,47.84626,-54.09684
2018-08-13 04:00:00+00:00,253.5147,19.4,13.05,47.84626,-54.09684
2018-08-13 04:10:00+00:00,246.6697,19.44,12.97,47.84626,-54.09684
2018-08-13 04:20:00+00:00,236.6447,19.49,13.05,47.84626,-54.09684
2018-08-13 04:30:00+00:00,223.0247,19.4,13.05,47.84626,-54.09684
2018-08-13 04:40:00+00:00,212.6698,19.4,13.05,47.84626,-54.09684
2018-08-13 04:50:00+00:00,205.5298,19.4,13.05,47.84626,-54.09684
2018-08-13 05:00:00+00:00,196.7731,19.4,13.05,47.84626,-54.09684
2018-08-13 05:10:00+00:00,187.0881,19.4,12.97,47.84626,-54.09684
2018-08-13 05:20:00+00:00,180.6248,19.4,13.05,47.84626,-54.09684
2018-08-13 05:30:00+00:00,176.5865,19.4,13.05,47.84626,-54.09684
2018-08-13 05:40:00+00:00,171.5815,19.4,13.05,47.84626,-54.09684
2018-08-13 05:50:00+00:00,166.5782,19.4,13.05,47.84626,-54.09684
2018-08-13 06:00:00+00:00,161.3798,19.4,12.97,47.84626,-54.09684
2018-08-13 06:10:00+00:00,156.5065,19.4,12.89,47.84626,-54.09684
2018-08-13 06:20:00+00:00,154.2748,19.4,12.97,47.84626,-54.09684
2018-08-13 06:30:00+00:00,152.8482,19.4,12.97,47.84626,-54.09684
2018-08-13 06:40:00+00:00,153.0532,19.39,12.97,47.84626,-54.09684
2018-08-13 06:50:00+00:00,154.6048,19.39,13.05,47.84626,-54.09684
2018-08-13 07:00:00+00:00,156.5982,19.39,12.97,47.84626,-54.09684
2018-08-13 07:10:00+00:00,158.6498,19.39,12.89,47.84626,-54.09684
2018-08-13 07:20:00+00:00,162.0448,19.38,12.97,47.84626,-54.09684
2018-08-13 07:30:00+00:00,165.2731,19.37,12.97,47.84626,-54.09684
2018-08-13 07:40:00+00:00,167.3682,19.38,12.97,47.84626,-54.09684
2018-08-13 07:50:00+00:00,173.3798,19.36,12.97,47.84626,-54.09684
2018-08-13 08:00:00+00:00,179.0798,19.3,12.97,47.84626,-54.09684
2018-08-13 08:10:00+00:00,181.5065,19.3,12.89,47.84626,-54.09684
2018-08-13 08:20:00+00:00,185.8398,19.3,12.97,47.84626,-54.09684
2018-08-13 08:30:00+00:00,191.6115,19.3,12.97,47.84626,-54.09684
2018-08-13 08:40:00+00:00,195.8615,19.3,12.97,47.84626,-54.09684
2018-08-13 08:50:00+00:00,199.7048,19.2,12.97,47.84626,-54.09684
2018-08-13 09:00:00+00:00,204.5298,19.19,12.97,47.84626,-54.09684
2018-08-13 09:10:00+00:00,210.6414,19.1,12.89,47.84626,-54.09684
2018-08-13 09:20:00+00:00,214.2998,19.1,12.97,47.84626,-54.09684
2018-08-13 09:30:00+00:00,217.9698,19.03,13.05,47.84626,-54.09684
2018-08-13 09:40:00+00:00,224.5531,19.01,13.21,47.84626,-54.09684
2018-08-13 09:50:00+00:00,232.1415,19.0,13.29,47.84626,-54.09684
2018-08-13 10:00:00+00:00,240.3397,19.0,13.37,47.84626,-54.09684
2018-08-13 10:10:00+00:00,246.9781,19.0,13.44,47.84626,-54.09684
2018-08-13 10:20:00+00:00,253.2614,19.0,13.68,47.84626,-54.09684
2018-08-13 10:30:00+00:00,263.3497,19.0,13.84,47.84626,-54.09684
2018-08-13 10:40:00+00:00,274.6814,19.0,14.0,47.84626,-54.09684
2018-08-13 10:50:00+00:00,282.7614,18.7,14.08,47.84626,-54.09684
2018-08-13 11:00:00+00:00,292.7463,18.0,14.16,47.84626,-54.09684
2018-08-13 11:10:00+00:00,303.1363,17.52,14.16,47.84626,-54.09684
2018-08-13 11:20:00+00:00,310.213,17.3,14.48,47.84626,-54.09684
2018-08-13 11:30:00+00:00,318.5113,17.4,14.56,47.84626,-54.09684
2018-08-13 11:40:00+00:00,333.0063,16.7,14.56,47.84626,-54.09684
2018-08-13 11:50:00+00:00,342.1014,16.51,14.56,47.84626,-54.09684
2018-08-13 12:00:00+00:00,344.0313,16.7,14.48,47.84626,-54.09684
2018-08-13 12:10:00+00:00,349.9996,16.36,14.4,47.84626,-54.09684
2018-08-13 12:20:00+00:00,360.0313,16.1,14.64,47.84626,-54.09684
2018-08-13 12:30:00+00:00,363.0264,16.7,14.56,47.84626,-54.09684
2018-08-13 12:40:00+00:00,361.8497,16.32,14.56,47.84626,-54.09684
2018-08-13 12:50:00+00:00,366.9996,16.02,14.56,47.84626,-54.09684
2018-08-13 13:00:00+00:00,369.0779,17.01,14.48,47.84626,-54.09684
2018-08-13 13:10:00+00:00,363.9262,18.1,14.48,47.84626,-54.09684
2018-08-13 13:20:00+00:00,361.548,16.55,14.56,47.84626,-54.09684
2018-08-13 13:30:00+00:00,362.3596,17.22,14.56,47.84626,-54.09684
2018-08-13 13:40:00+00:00,356.7762,18.69,14.56,47.84626,-54.09684
2018-08-13 13:50:00+00:00,347.9346,18.87,14.56,47.84626,-54.09684
2018-08-13 14:00:00+00:00,346.0079,18.44,14.48,47.84626,-54.09684
2018-08-13 14:10:00+00:00,347.8179,18.29,14.48,47.84626,-54.09684
2018-08-13 14:20:00+00:00,339.1346,18.58,14.56,47.84626,-54.09684
2018-08-13 14:30:00+00:00,332.7413,18.8,14.56,47.84626,-54.09684
2018-08-13 14:40:00+00:00,332.0797,18.3,14.56,47.84626,-54.09684
2018-08-13 14:50:00+00:00,330.0613,18.26,14.56,47.84626,-54.09684
2018-08-13 15:00:00+00:00,320.7847,18.55,14.48,47.84626,-54.09684
2018-08-13 15:10:00+00:00,313.7681,18.27,14.4,47.84626,-54.09684
2018-08-13 15:20:00+00:00,307.3797,18.28,14.48,47.84626,-54.09684
2018-08-13 15:30:00+00:00,297.6247,18.54,14.48,47.84626,-54.09684
2018-08-13 15:40:00+00:00,286.9214,18.5,14.48,47.84626,-54.09684
2018-08-13 15:50:00+00:00,277.9797,18.57,14.4,47.84626,-54.09684
2018-08-13 16:00:00+00:00,267.8197,18.69,14.32,47.84626,-54.09684
2018-08-13 16:10:00+00:00,256.2081,18.6,14.32,47.84626,-54.09684
2018-08-13 16:20:00+00:00,243.4814,18.5,14.4,47.84626,-54.09684
2018-08-13 16:30:00+00:00,232.1997,18.57,14.32,47.84626,-54.09684
2018-08-13 16:40:00+00:00,223.4182,18.5,14.32,47.84626,-54.09684
2018-08-13 16:50:00+00:00,213.3448,18.44,14.32,47.84626,-54.09684
2018-08-13 17:00:00+00:00,202.1598,18.35,14.24,47.84626,-54.09684
2018-08-13 17:10:00+00:00,192.9615,18.3,14.16,47.84626,-54.09684
2018-08-13 17:20:00+00:00,185.5932,18.3,14.24,47.84626,-54.09684
2018-08-13 17:30:00+00:00,177.1815,18.38,14.24,47.84626,-54.09684
2018-08-13 17:40:00+00:00,171.5715,18.4,14.24,47.84626,-54.09684
2018-08-13 17:50:00+00:00,168.3315,18.4,14.24,47.84626,-54.09684
2018-08-13 18:00:00+00:00,165.3665,18.5,14.16,47.84626,-54.09684
2018-08-13 18:10:00+00:00,163.4098,18.58,14.0,47.84626,-54.09684
2018-08-13 18:20:00+00:00,162.4015,18.6,14.08,47.84626,-54.09684
2018-08-13 18:30:00+00:00,161.2182,18.6,14.08,47.84626,-54.09684
2018-08-13 18:40:00+00:00,159.7331,18.62,14.08,47.84626,-54.09684
2018-08-13 18:50:00+00:00,159.8032,18.7,14.08,47.84626,-54.09684
2018-08-13 19:00:00+00:00,164.2115,18.76,14.0,47.84626,-54.09684
2018-08-13 19:10:00+00:00,168.3199,18.77,13.92,47.84626,-54.09684
2018-08-13 19:20:00+00:00,165.3198,18.79,14.0,47.84626,-54.09684
2018-08-13 19:30:00+00:00,164.1082,18.8,14.0,47.84626,-54.09684
2018-08-13 19:40:00+00:00,172.9781,18.81,14.0,47.84626,-54.09684
2018-08-13 19:50:00+00:00,177.8665,18.9,14.0,47.84626,-54.09684
2018-08-13 20:00:00+00:00,173.8298,18.98,13.92,47.84626,-54.09684
2018-08-13 20:10:00+00:00,179.7415,19.01,13.84,47.84626,-54.09684
2018-08-13 20:20:00+00:00,191.4131,19.06,13.84,47.84626,-54.09684
2018-08-13 20:30:00+00:00,193.4615,19.1,13.84,47.84626,-54.09684
2018-08-13 20:40:00+00:00,197.0981,19.2,13.84,47.84626,-54.09684
2018-08-13 20:50:00+00:00,205.4698,19.2,13.84,47.84626,-54.09684
2018-08-13 21:00:00+00:00,210.6364,19.2,13.76,47.84626,-54.09684
2018-08-13 21:10:00+00:00,213.2615,19.2,13.6,47.84626,-54.09684
2018-08-13 21:20:00+00:00,217.9431,19.2,13.68,47.84626,-54.09684
2018-08-13 21:30:00+00:00,224.9814,19.0,13.6,47.84626,-54.09684
2018-08-13 21:40:00+00:00,231.6181,18.8,13.6,47.84626,-54.09684
2018-08-13 21:50:00+00:00,236.5081,18.8,13.6,47.84626,-54.09684
2018-08-13 22:00:00+00:00,243.4365,18.8,13.44,47.84626,-54.09684
2018-08-13 22:10:00+00:00,251.9264,18.8,13.37,47.84626,-54.09684
2018-08-13 22:20:00+00:00,259.1498,18.8,13.37,47.84626,-54.09684
2018-08-13 22:30:00+00:00,264.6247,18.95,13.29,47.84626,-54.09684
2018-08-13 22:40:00+00:00,271.4265,19.1,13.29,47.84626,-54.09684
2018-08-13 22:50:00+00:00,281.0164,19.1,13.29,47.84626,-54.09684
2018-08-13 23:00:00+00:00,291.6231,19.15,13.21,47.84626,-54.09684
2018-08-13 23:10:00+00:00,301.0347,19.2,13.05,47.84626,-54.09684
2018-08-13 23:20:00+00:00,310.3896,19.24,13.13,47.84626,-54.09684
2018-08-13 23:30:00+00:00,320.108,19.29,13.13,47.84626,-54.09684
2018-08-13 23:40:00+00:00,332.4363,19.3,13.13,47.84626,-54.09684
2018-08-13 23:50:00+00:00,343.8263,19.3,13.13,47.84626,-54.09684
